Figure 2.9. Illustration of Joint and Total Expected Shortfalls Arising from ,,
Systemic Liquidity Risk,,
(Expected shortfall of risk-adjusted NSFR at 95 percent confidence level; in billions of U.S. dollars) ,,
,,
,Joint expected shortfall,Total shortfall
1/3/2007,75.38,87.92190135
1/4/2007,71.24,87.52165147
1/5/2007,71.04,86.81558247
1/8/2007,82.91,86.42446646
1/9/2007,89.55,86.20321115
1/10/2007,97.84,85.77419054
1/11/2007,114.94,85.54606536
1/12/2007,87.92,86.03716453
1/16/2007,96.8,86.1703139
1/17/2007,110.4,85.76086893
1/18/2007,125.22,85.34724781
1/19/2007,142.43,84.95914925
1/22/2007,167.76,84.72495145
1/23/2007,174.76,84.72209067
1/24/2007,91.19,84.54673344
1/25/2007,92.63,83.36100306
1/26/2007,91.35,82.85430108
1/29/2007,92.85,82.22260551
1/30/2007,92.62,81.94633476
1/31/2007,93.01,81.7202087
2/1/2007,89.86,81.37365893
2/2/2007,95.93,81.0829446
2/5/2007,97.6,82.81709516
2/6/2007,99.9,83.5741892
2/7/2007,101.65,83.72502118
2/8/2007,101.25,83.43363838
2/9/2007,104.07,83.19702693
2/12/2007,108.24,83.14174612
2/13/2007,107.12,83.07245233
2/14/2007,108.55,82.89782333
2/15/2007,116.66,82.63673892
2/16/2007,113.7,82.13686069
2/20/2007,129.96,81.5055507
2/21/2007,119.48,81.38265502
2/22/2007,110.38,81.01562623
2/23/2007,105.08,80.10651257
2/26/2007,109.38,78.6049942
2/27/2007,116.9,77.80637377
2/28/2007,125.55,77.51323792
3/1/2007,124.64,77.20924509
3/2/2007,123.73,76.98876841
3/5/2007,116.86,76.78288438
3/6/2007,121.74,76.65292581
3/7/2007,130.14,76.3784406
3/8/2007,136.34,76.22132951
3/9/2007,146.85,76.00870289
3/12/2007,153.57,75.67263387
3/13/2007,96.3,75.31703348
3/14/2007,96.79,75.25641427
3/15/2007,95.19,75.2109678
3/16/2007,94.78,75.11868139
3/19/2007,94.82,75.06326849
3/20/2007,88.3,75.00401899
3/21/2007,89.11,74.91396617
3/22/2007,88.85,74.61932754
3/23/2007,90.01,74.48208881
3/26/2007,86.37,74.09191863
3/27/2007,87.13,73.58797001
3/28/2007,87.56,73.18126743
3/29/2007,87.29,73.06387328
3/30/2007,79.69,72.92565908
4/2/2007,77.76,72.80673306
4/3/2007,75.06,72.7246229
4/4/2007,72.73,72.13008041
4/5/2007,69.77,72.11728592
4/9/2007,67.01,72.13857699
4/10/2007,65.07,72.1574536
4/11/2007,62.78,72.14854395
4/12/2007,62.66,72.19344369
4/13/2007,62.28,72.20159758
4/16/2007,61.21,72.25037174
4/17/2007,61.34,81.55992876
4/18/2007,60.18,85.44911478
4/19/2007,61.82,85.44792893
4/20/2007,63.72,85.59095407
4/23/2007,64.85,85.7765088
4/24/2007,64.33,85.87606816
4/25/2007,65.3,85.86681443
4/26/2007,66.96,85.83005164
4/27/2007,68,85.88644042
4/30/2007,51.31,85.96928653
5/1/2007,49.08,85.92071956
5/2/2007,46.64,85.86537623
5/3/2007,47.37,85.87381013
5/4/2007,46.98,85.89586897
5/7/2007,46.57,86.51071719
5/8/2007,28.62,86.83546345
5/9/2007,28.6,86.80136065
5/10/2007,29.96,86.7430176
5/11/2007,29.62,86.71130729
5/14/2007,38.19,86.66324688
5/15/2007,37.11,86.63649019
5/16/2007,36.57,86.61878398
5/17/2007,41.42,86.57286984
5/18/2007,40.94,86.52993955
5/21/2007,40.55,86.47339979
5/22/2007,43.55,86.44301454
5/23/2007,43.06,86.39943553
5/24/2007,42.17,86.35809155
5/25/2007,49.18,86.21592271
5/29/2007,38.31,85.88292294
5/30/2007,37.79,85.79683834
5/31/2007,41.81,85.49027619
6/1/2007,42.68,85.23909065
6/4/2007,44.45,84.93732712
6/5/2007,49.64,84.54788853
6/6/2007,64.92,83.91534142
6/7/2007,66.87,83.57885185
6/8/2007,68.66,83.54070042
6/11/2007,68.59,83.49072576
6/12/2007,69.6,83.40392172
6/13/2007,70.13,83.24740767
6/14/2007,70.18,82.55224327
6/15/2007,87.99,82.45336162
6/18/2007,70.88,82.60908039
6/19/2007,69.12,81.99612929
6/20/2007,67.23,79.66762051
6/21/2007,65.94,77.64412835
6/22/2007,65.47,75.23188781
6/25/2007,70.84,72.5976024
6/26/2007,86.51,71.12714913
6/28/2007,94.52,70.11924262
6/29/2007,74.99,68.84512249
7/2/2007,67.22,68.08349834
7/3/2007,62.13,67.93210252
7/6/2007,58.56,67.03810511
7/9/2007,56.16,65.85814634
7/10/2007,53.34,64.45683519
7/11/2007,51.05,63.5347824
7/12/2007,48.5,62.84976546
7/13/2007,45.79,61.97623486
7/16/2007,44.09,60.77416627
7/18/2007,42.72,59.44897316
7/19/2007,41.29,58.15781445
7/20/2007,40.3,56.81422642
7/23/2007,87.8,55.75177988
7/25/2007,77.85,54.44798594
7/26/2007,72.23,52.97659734
7/27/2007,68.83,51.99681836
7/30/2007,68.19,51.10706697
7/31/2007,66.39,49.66969243
8/1/2007,67.55,48.88339103
8/2/2007,66.68,47.82991105
8/3/2007,71.97,46.72461932
8/6/2007,127.16,46.59598909
8/8/2007,127.93,45.95583312
8/9/2007,126.67,44.50975283
8/10/2007,127.55,43.61250336
8/13/2007,124.42,43.07415997
8/14/2007,122.02,43.12989792
8/15/2007,120.33,43.38310471
8/16/2007,119.14,43.56750339
8/17/2007,115.13,43.64775055
8/20/2007,113.07,43.71496668
8/22/2007,107.94,43.07623673
8/23/2007,99.47,42.08696984
8/24/2007,92.33,41.26802965
8/27/2007,89.2,40.02698313
8/28/2007,88.67,38.72566139
8/29/2007,89.34,37.94901734
8/30/2007,88.69,37.11455674
8/31/2007,86.31,36.81313619
9/4/2007,103.11,36.29570168
9/5/2007,99.01,35.51109094
9/6/2007,93.58,34.93236508
9/7/2007,90.79,34.52999921
9/11/2007,100.06,34.28430044
9/12/2007,112.64,34.90197545
9/13/2007,110.81,35.02217648
9/14/2007,111.35,34.97536602
9/18/2007,112.55,35.45232741
9/19/2007,114.96,35.63824832
9/20/2007,119.5,35.82229733
9/24/2007,128.47,36.62434511
9/25/2007,133.74,38.04925488
9/26/2007,144.43,39.76983025
9/28/2007,148.54,40.29990447
10/1/2007,92.49,40.65090161
10/3/2007,94.29,40.71903423
10/4/2007,93.65,41.23561474
10/5/2007,94.04,41.97940521
10/8/2007,94.48,42.9234173
10/9/2007,85.69,44.29592709
10/10/2007,84.82,45.20408572
10/12/2007,83.24,46.39782997
10/15/2007,83.02,48.23725295
10/16/2007,78.38,49.17163769
10/17/2007,78.41,50.4954994
10/18/2007,77.84,51.31803492
10/19/2007,76.03,51.86177907
10/22/2007,74.25,52.90233345
10/23/2007,69.44,53.57646018
10/24/2007,63.98,54.36726745
10/25/2007,60.02,54.58690573
10/29/2007,55.2,54.939209
10/30/2007,51.73,55.42351535
10/31/2007,48.65,56.12822651
11/1/2007,45.32,56.81212854
11/2/2007,42.85,57.30412885
11/5/2007,40.97,57.76061949
11/6/2007,39.33,58.17292295
11/7/2007,37.33,58.56848038
11/8/2007,36.9,58.74634443
11/9/2007,36.9,58.83629352
11/13/2007,37.92,59.0368605
11/14/2007,38.09,59.46225686
11/15/2007,38.21,60.1376008
11/16/2007,39.1,60.50298709
11/19/2007,39.49,60.97610887
11/20/2007,40.12,61.55914105
11/21/2007,29.45,62.29861931
11/23/2007,27.48,63.42800828
11/26/2007,24.15,64.68814394
11/27/2007,24.07,66.01308993
11/28/2007,23.49,67.82857538
11/29/2007,23.09,69.46487427
11/30/2007,23.02,71.67005318
12/3/2007,24.33,76.12538031
12/5/2007,26.56,79.72812821
12/6/2007,26.28,84.34330672
12/7/2007,35.99,90.01893871
12/10/2007,35.16,97.38028882
12/11/2007,35.27,104.7474136
12/12/2007,42.23,112.2157637
12/13/2007,42.18,120.9591107
12/17/2007,42.46,130.0085904
12/18/2007,43.05,137.1412811
12/19/2007,43.23,142.9471094
12/20/2007,42.87,150.9978864
12/21/2007,53.6,160.8696082
12/24/2007,40.1,167.9195595
12/26/2007,45.41,174.7019693
12/27/2007,46.08,181.6090746
12/28/2007,46.81,187.1573849
12/31/2007,49.07,191.5779336
1/2/2008,50.91,196.0296898
1/3/2008,76.38,209.9616335
1/4/2008,79.02,218.0200608
1/7/2008,80.52,221.3609466
1/8/2008,80.75,225.1595847
1/9/2008,80.91,226.9652824
1/10/2008,81.37,228.0507548
1/11/2008,80.46,231.7272824
1/14/2008,101.39,236.2205721
1/15/2008,77.42,240.2094167
1/17/2008,74.17,244.5198202
1/18/2008,69.34,249.0978801
1/23/2008,64.89,253.3183939
1/24/2008,58.11,256.1388676
1/25/2008,52.83,260.7083964
1/28/2008,47.18,266.797667
1/29/2008,42.7,274.4310524
1/30/2008,38.28,278.3112497
1/31/2008,34.48,283.4803935
2/1/2008,31.08,288.4459324
2/4/2008,29.13,296.0868853
2/5/2008,27.94,305.9175231
2/6/2008,26.57,314.2831518
2/7/2008,25.22,326.7547786
2/8/2008,23.92,333.1676475
2/11/2008,23.41,337.2110895
2/12/2008,22.81,339.3865999
2/13/2008,22.49,341.7913516
2/14/2008,22.38,343.5226497
2/15/2008,22.67,348.170547
2/19/2008,24.59,357.5925612
2/20/2008,24.38,361.3161096
2/21/2008,24.95,362.7481995
2/22/2008,26.17,363.0724768
2/25/2008,27.77,363.8659473
2/26/2008,30.01,364.0510393
2/27/2008,34.75,364.1939086
2/28/2008,37.88,364.3077306
2/29/2008,52.82,364.4735687
3/3/2008,61.9,364.6338654
3/4/2008,73.25,364.831867
3/5/2008,114.69,365.0482801
3/6/2008,50.72,365.1440781
3/7/2008,56.55,365.1905264
3/10/2008,61.93,365.2132513
3/11/2008,68.89,365.2322837
3/12/2008,75.53,365.2591971
3/13/2008,82.56,365.3753543
3/14/2008,89.24,361.5194372
3/17/2008,95,350.8462339
3/18/2008,100.41,350.8462339
3/19/2008,105.21,350.8462339
3/20/2008,109.07,350.8462339
3/24/2008,112.92,350.7500977
3/25/2008,115.49,350.7500977
3/26/2008,117.48,350.7500977
3/27/2008,118.97,350.7500977
3/28/2008,119.08,350.7500977
3/31/2008,118.31,350.7864082
4/1/2008,117.85,350.7854159
4/2/2008,115.88,350.0385808
4/3/2008,113.93,348.9958254
4/4/2008,111.27,347.2311805
4/7/2008,106.18,345.3792814
4/8/2008,100.77,341.175322
4/9/2008,96.67,336.3018097
4/10/2008,92.31,331.2025193
4/11/2008,86.76,324.8989022
4/14/2008,80.48,318.483996
4/15/2008,128.03,315.694724
4/16/2008,107.82,313.6955013
4/17/2008,91.11,311.0419543
4/18/2008,79.11,307.2906004
4/21/2008,68.86,302.0349869
4/22/2008,61.38,300.3124652
4/23/2008,56.04,299.7851209
4/25/2008,51.82,299.1039016
5/1/2008,48.64,295.9725627
5/2/2008,46.43,291.2473715
5/5/2008,44.28,284.4566586
5/6/2008,42.31,277.6081172
5/7/2008,40.41,270.2673959
5/8/2008,38.9,265.9497353
5/9/2008,38.15,262.2367433
5/12/2008,37.6,258.7456135
5/13/2008,37.29,255.1738703
5/15/2008,37.46,253.1239421
5/19/2008,38.13,249.6413708
5/20/2008,38.87,241.764631
5/21/2008,40.04,234.2411863
5/22/2008,41.46,228.6957035
5/23/2008,43.04,221.7783063
5/27/2008,44.68,216.5436374
5/28/2008,46.34,210.5527676
5/29/2008,47.7,204.2960432
5/30/2008,48.28,196.9033053
6/2/2008,48.83,188.0887914
6/3/2008,49.35,178.1453446
6/9/2008,49.83,168.3473435
6/10/2008,50.33,161.468795
6/12/2008,50.87,156.0326294
6/13/2008,51.41,151.33432
6/16/2008,51.94,145.6413697
6/18/2008,52.54,138.7081657
6/19/2008,53.2,132.6414012
6/20/2008,53.95,127.066786
6/23/2008,54.71,122.8910597
6/24/2008,55.57,119.8042117
6/25/2008,56.45,116.3446431
6/26/2008,57.48,111.8306413
6/30/2008,58.61,108.5483004
7/1/2008,59.74,106.2286848
7/2/2008,61.02,103.5223453
7/3/2008,62.36,100.966954
7/7/2008,63.89,98.44552337
7/8/2008,65.55,95.96073292
7/9/2008,67.16,92.12511421
7/10/2008,68.75,88.91471277
7/14/2008,70.26,85.99505894
7/15/2008,71.79,82.84830822
7/16/2008,73.32,80.03385121
7/17/2008,74.57,76.16173375
7/18/2008,75.59,71.93601351
7/21/2008,76.87,68.20633355
7/22/2008,77.02,64.09380485
7/23/2008,77.23,60.2891456
7/24/2008,77.32,56.89957948
7/25/2008,77.43,53.85146466
7/28/2008,77.57,50.82930376
7/29/2008,77.85,48.2765631
7/30/2008,78.41,46.65606639
7/31/2008,78.81,45.00111357
8/1/2008,80.1,44.1600388
8/4/2008,80.34,43.32423777
8/5/2008,80.76,44.1218516
8/6/2008,81.92,45.50839092
8/7/2008,82.7,46.03719393
8/8/2008,83.79,47.15976972
8/11/2008,84.9,47.58127479
8/12/2008,85.81,47.71597251
8/13/2008,86.68,47.93910761
8/14/2008,87.26,47.89388755
8/15/2008,87.9,47.78738583
8/18/2008,88.31,48.12441843
8/19/2008,88.64,48.59901572
8/20/2008,88.84,49.27985554
8/21/2008,88.99,50.1435336
8/22/2008,88.87,51.263956
8/25/2008,88.88,53.7591732
8/26/2008,88.74,56.45070772
8/27/2008,88.39,59.64110555
8/28/2008,87.91,64.94530267
8/29/2008,87.55,70.59058122
9/2/2008,87.19,75.19510799
9/3/2008,86.52,77.21013346
9/4/2008,85.86,78.55625549
9/5/2008,86.28,79.61680184
9/8/2008,86.93,81.11350325
9/9/2008,87.49,83.10522227
9/10/2008,87.99,84.01969166
9/11/2008,88.4,85.01162795
9/12/2008,88.75,86.54138233
9/15/2008,89.7,89.12087312
9/16/2008,91.42,91.38476597
9/17/2008,93.37,92.97863387
9/18/2008,95.39,94.23263334
9/19/2008,97.28,95.94030073
9/22/2008,98.89,98.40413999
9/23/2008,100.66,101.1580855
9/24/2008,103.57,104.7878433
9/25/2008,106.71,108.4789875
9/26/2008,110.22,112.4296637
9/29/2008,113.3,114.3601708
9/30/2008,116.07,116.6501188
10/1/2008,118.76,119.3925797
10/2/2008,122.32,122.4801581
10/3/2008,125.66,125.3312917
10/6/2008,129.76,127.9750231
10/7/2008,135.8,133.6583636
10/8/2008,137.94,137.5996998
10/9/2008,146.34,143.5279604
10/10/2008,158.58,152.4647813
10/13/2008,175.44,158.3594831
10/14/2008,198,165.0390455
10/15/2008,227.77,168.0430997
10/16/2008,260.9,169.319216
10/17/2008,205.57,170.5730134
10/20/2008,222.35,170.1655024
10/21/2008,241.29,170.6842724
10/22/2008,254.02,172.0253931
10/23/2008,264.35,172.7434079
10/24/2008,270.9,175.2134209
10/27/2008,273.7,179.5746154
10/28/2008,274.95,180.8436971
10/29/2008,276.99,181.9795791
10/30/2008,275.22,182.922158
10/31/2008,270,184.2632098
11/3/2008,259.8,186.9439084
11/4/2008,232.9,191.6858087
11/5/2008,221.73,195.6218095
11/6/2008,220.95,200.2106677
11/7/2008,205.01,203.3208734
11/10/2008,187.99,207.3408779
11/11/2008,172.13,211.3175531
11/12/2008,156.28,215.2143186
11/13/2008,140.96,219.7843285
11/14/2008,125.93,223.8014636
11/17/2008,113.81,227.9177135
11/18/2008,103,229.7928504
11/19/2008,97.48,231.0274846
11/20/2008,93.78,231.5358064
11/21/2008,92.37,231.4952556
11/24/2008,91.64,231.1363662
11/25/2008,91.18,231.4776452
11/26/2008,91.88,232.9894404
11/28/2008,94.17,234.107808
12/1/2008,98.05,238.6369564
12/2/2008,100.49,241.0497741
12/3/2008,103.4,244.0248025
12/4/2008,107.9,247.2424552
12/5/2008,113.88,250.990561
12/8/2008,119.03,258.4691208
12/9/2008,125.77,261.8358357
12/10/2008,134.76,263.9645277
12/11/2008,147.1,267.9192653
12/12/2008,160.27,272.5242947
12/15/2008,175.56,278.871096
12/16/2008,192.87,287.5904128
12/18/2008,212.9,298.0353657
12/19/2008,232.5,309.8573653
12/23/2008,248.63,323.1857554
12/24/2008,260.9,336.3971598
12/26/2008,271.83,352.4866706
12/29/2008,278.61,382.0942554
12/30/2008,278.12,399.1742295
12/31/2008,280.66,405.1621329
1/2/2009,286.66,405.0011445
1/5/2009,295.05,412.0908809
1/6/2009,298.32,417.4045609
1/7/2009,338.77,434.6710038
1/8/2009,414.63,452.3286907
1/9/2009,417.8,461.8402764
1/12/2009,442.88,468.5568098
1/13/2009,486.15,480.8039738
1/14/2009,481.12,487.8274054
1/15/2009,468.79,485.1497679
1/20/2009,427.16,485.7597459
1/22/2009,402.17,485.1754783
1/23/2009,388.1,485.1987956
1/27/2009,322.67,484.8544289
1/28/2009,293.62,483.5816151
1/29/2009,285.58,483.226952
1/30/2009,262.28,483.1230146
2/2/2009,236.41,483.495865
2/3/2009,215.01,483.0886985
2/4/2009,197.3,481.6317229
2/5/2009,190.26,479.4642164
2/6/2009,175.88,477.4288993
2/9/2009,164.51,476.2116822
2/10/2009,146.61,474.4789723
2/11/2009,140.35,472.5511945
2/12/2009,129.09,463.5634804
2/17/2009,118.07,443.1651547
2/18/2009,174,442.3722617
2/19/2009,99.5,442.2814249
2/20/2009,74.36,440.7556949
2/24/2009,67.22,439.5568363
2/25/2009,64.32,439.0306562
2/27/2009,63.04,437.9191526
3/2/2009,63.79,435.8941838
3/3/2009,64.06,433.8837447
3/4/2009,61.08,434.2679652
3/6/2009,61.58,432.5532097
3/9/2009,62.13,429.2050162
3/10/2009,63.05,418.29243
3/11/2009,64.04,415.5844715
3/12/2009,65.13,379.4660799
3/16/2009,68.68,295.0317183
3/17/2009,72.01,288.4476784
3/18/2009,75.13,280.812676
3/19/2009,78.63,275.6793284
3/20/2009,82.13,270.4499331
3/23/2009,85.34,263.1737399
3/24/2009,89.13,260.1402355
3/25/2009,92.81,256.0506554
3/26/2009,97.09,250.9908585
3/27/2009,102.98,245.647785
3/30/2009,108.86,241.0274629
3/31/2009,116.07,232.2058965
4/1/2009,127.03,223.7703523
4/2/2009,141.88,216.3027237
4/6/2009,152.25,209.9398679
4/7/2009,160.57,204.3794027
4/8/2009,173.29,197.5972461
4/9/2009,183.83,187.1395069
4/13/2009,195.19,177.7744509
4/14/2009,206.3,173.6642609
4/15/2009,232.8,171.7298194
4/16/2009,247.09,169.4575231
4/17/2009,251.19,167.3889218
4/20/2009,257.48,164.2760325
4/21/2009,256.54,152.9898473
4/22/2009,256.16,147.2954134
4/23/2009,247.73,140.1119086
4/24/2009,241.02,134.9260564
4/27/2009,231.69,131.869242
4/28/2009,230.65,127.4213173
4/29/2009,227.16,119.0245373
4/30/2009,223.79,114.9970291
5/1/2009,222.16,110.4741837
5/4/2009,221.86,102.0564595
5/5/2009,220.73,97.07309788
5/6/2009,218.25,90.96810138
5/7/2009,215.81,89.16677327
5/8/2009,209.45,86.95388322
5/11/2009,204.83,86.09028254
5/12/2009,199.64,85.38500394
5/13/2009,194.38,84.23894883
5/14/2009,191.74,82.45060816
5/15/2009,187.58,81.3722763
5/18/2009,185.94,79.30394407
5/19/2009,184.07,80.57153608
5/20/2009,182.43,80.96547018
5/21/2009,181.32,79.55767129
5/22/2009,179.76,79.67161215
5/26/2009,178.31,79.22277536
5/27/2009,175.64,79.14688848
5/28/2009,171.86,78.27061088
5/29/2009,167.32,77.78731789
6/1/2009,161.13,77.88001098
6/2/2009,155.31,79.51229705
6/3/2009,148.64,83.51975956
6/4/2009,143.5,86.86492694
6/5/2009,138.55,91.50004427
6/8/2009,133.57,93.38682742
6/9/2009,130.11,94.99939116
6/12/2009,126.41,96.94132082
6/15/2009,123.75,97.87565994
6/16/2009,120.71,98.6707822
6/17/2009,117.89,99.56041795
6/18/2009,115.57,99.81302704
6/19/2009,113.06,99.81917377
6/22/2009,112.32,99.82368984
6/23/2009,112.26,99.87648686
6/24/2009,114.01,99.57991116
6/25/2009,117.38,99.3572401
6/26/2009,121.07,99.32417296
6/29/2009,124.64,99.25755749
6/30/2009,128.19,100.4319185
7/1/2009,131.45,101.4731001
7/2/2009,133.98,101.6424305
7/6/2009,137.83,101.5384008
7/7/2009,142.84,101.8231838
7/8/2009,147.1,101.8022778
7/9/2009,151.93,101.5248277
7/10/2009,158.23,101.3628083
7/13/2009,164.84,101.1661886
7/14/2009,169.65,101.2886676
7/15/2009,172.39,101.2588272
7/16/2009,176.22,101.3508461
7/17/2009,180.04,101.4801137
7/20/2009,183.57,101.3489033
7/21/2009,187.21,101.4075587
7/22/2009,190.61,100.5709219
7/23/2009,193.98,98.52224102
7/24/2009,197.13,98.47737777
7/27/2009,199.46,98.03739068
7/28/2009,200.78,97.63680158
7/29/2009,199.71,94.98602503
7/30/2009,199.69,89.2553865
7/31/2009,199.34,89.36874017
8/3/2009,197.7,89.11229472
8/4/2009,198.33,89.06244625
8/5/2009,200.35,89.05542428
8/6/2009,208.53,89.05392839
8/7/2009,214.1,89.47807841
8/10/2009,222.66,89.69501678
8/11/2009,229.91,89.73925249
8/12/2009,237.65,89.77113469
8/13/2009,242.47,89.5383366
8/14/2009,248.59,88.45935349
8/17/2009,255.32,85.45422627
8/18/2009,265.36,84.90332398
8/19/2009,273.2,84.32638303
8/20/2009,285.32,82.59476716
8/21/2009,297.89,80.59757341
8/24/2009,311.6,77.38122797
8/25/2009,323.13,76.22267831
8/26/2009,339.26,75.02855975
8/27/2009,357.86,72.9293793
8/28/2009,382.57,70.86333407
8/31/2009,402.14,68.69875819
9/1/2009,421.28,67.20210288
9/2/2009,422.43,66.10578726
9/3/2009,424.23,63.87430174
9/4/2009,425.96,61.76194058
9/8/2009,368.06,61.16598977
9/9/2009,354.97,60.34767754
9/10/2009,348.74,60.1913833
9/11/2009,323,59.70714215
9/14/2009,304.17,58.54304929
9/16/2009,278.26,58.87978339
9/17/2009,253.1,58.9690944
9/18/2009,228.81,59.26299444
9/21/2009,213.08,59.29484413
9/22/2009,194.26,59.29183373
9/23/2009,181.44,59.28406159
9/24/2009,167.21,59.09878363
9/25/2009,153.45,58.72549846
9/28/2009,140.3,58.12163474
9/29/2009,128.11,57.78204508
9/30/2009,115.02,55.00180382
10/1/2009,105.19,48.95690906
10/2/2009,96.46,49.18724061
10/5/2009,86.45,48.70063739
10/6/2009,77.44,48.30704269
10/7/2009,70.56,47.91866095
10/8/2009,63.67,46.7863342
10/9/2009,57.76,43.51139374
10/12/2009,54.56,41.73915123
10/13/2009,51.87,41.42783315
10/14/2009,49.7,39.92518376
10/15/2009,49.2,39.6742253
10/16/2009,48.36,39.33107254
10/19/2009,46.27,37.71268477
10/20/2009,43.98,37.92560986
10/21/2009,41.95,38.10867983
10/22/2009,40.52,38.05825472
10/23/2009,39.13,37.84517491
10/27/2009,38.66,38.09436028
10/28/2009,37.08,38.27474903
10/29/2009,36.72,38.50649894
10/30/2009,36.39,38.68222377
11/2/2009,36.22,38.73720571
11/3/2009,36.1,39.11117123
11/4/2009,36.18,39.32202452
11/5/2009,36.27,39.42892982
11/6/2009,36.5,39.56106786
11/9/2009,36.75,39.58854058
11/10/2009,36.84,39.81054066
11/11/2009,37.02,39.86059413
11/13/2009,37.25,39.16012202
11/16/2009,37.34,36.84872327
11/17/2009,37.46,36.27755092
11/18/2009,37.92,35.89108088
11/19/2009,38.31,35.69477309
11/20/2009,38.68,35.50134971
11/24/2009,38.93,35.30557502
11/25/2009,39.26,35.30231208
11/27/2009,39.51,35.30231208
11/30/2009,40.24,35.06373247
12/1/2009,40.7,35.00948693
12/2/2009,41.02,35.00674795
12/3/2009,41.68,34.74916627
12/4/2009,42.11,34.12723594
12/7/2009,42.18,34.10847667
12/9/2009,42.08,34.07837739
12/10/2009,42.46,34.0104589
12/11/2009,42.61,33.85394587
12/14/2009,42.91,33.6102572
12/15/2009,43.38,32.93768211
12/16/2009,43.75,32.43665213
12/18/2009,44.43,32.27709597
12/21/2009,44.86,32.04673061
12/22/2009,45.11,32.05690076
12/23/2009,45.15,32.09615417
12/24/2009,44.92,32.08041339
12/28/2009,45.02,32.16100038
12/30/2009,45.15,32.21140302
12/31/2009,45.16,33.500885
1/4/2010,44.89,33.66363403
1/5/2010,45.2,33.12877852
1/6/2010,47.54,32.74735409
1/7/2010,49.12,32.36051736
1/8/2010,50.56,32.03410469
1/11/2010,51.7,31.92564838
1/12/2010,55.47,31.85758047
1/13/2010,65.35,31.82812429
1/14/2010,75.45,31.83475011
1/15/2010,82.27,31.85731612
1/19/2010,89.46,31.75328697
1/21/2010,94.56,31.62734579
1/22/2010,102.74,31.43679923
1/25/2010,126.5,30.75448353
1/26/2010,148.38,30.26130988
1/27/2010,159.32,29.6463118
1/28/2010,166.06,29.46519682
1/29/2010,168.64,29.45054681
2/1/2010,163.42,29.6196594
2/2/2010,169.15,29.61102961
2/3/2010,164.1,29.58128008
2/4/2010,154.37,29.56001349
2/5/2010,146.9,29.49851492
2/8/2010,138.77,29.46954365
2/9/2010,134.17,29.39853934
2/10/2010,128.56,29.34565186
2/11/2010,126.48,29.27727124
2/12/2010,119.23,29.15676362
2/16/2010,115.03,28.99409387
2/17/2010,107.65,28.8604533
2/18/2010,104.11,28.70128928
2/19/2010,102.12,28.52034098
2/22/2010,102.12,28.28587368
2/23/2010,100.55,28.11132998
2/24/2010,101.81,27.78763759
2/25/2010,103.57,27.72831313
2/26/2010,102.9,27.64819366
3/1/2010,102.36,27.53455492
3/2/2010,100.53,27.47343581
3/3/2010,91.76,27.37483837
3/4/2010,86.01,27.48757136
3/5/2010,82,27.4215667
3/8/2010,75.62,27.33137831
3/9/2010,69.2,27.11290763
3/10/2010,64.18,26.73197202
3/11/2010,58.97,26.39578009
3/12/2010,53.88,26.48204008
3/15/2010,50.1,26.5678598
3/16/2010,47.15,26.16967049
3/17/2010,44.96,25.92424216
3/18/2010,42.6,25.93129225
3/19/2010,41.05,25.8085343
3/22/2010,39.57,25.49377427
3/23/2010,38.28,25.04484974
3/24/2010,37.22,25.45494881
3/25/2010,36.36,25.7559665
3/26/2010,35.9,25.79809296
3/29/2010,35.56,25.91457999
3/30/2010,34.29,26.01494608
3/31/2010,33.26,25.98011195
4/1/2010,32.37,26.04195738
4/5/2010,31.14,27.3473247
4/6/2010,29.43,27.94122521
4/7/2010,28.73,27.90679577
4/8/2010,27.7,28.33603466
4/9/2010,26.08,28.29438779
4/12/2010,24.97,28.38504398
4/13/2010,24.08,28.35943916
4/14/2010,23.14,28.51790388
4/15/2010,22,28.51176614
4/16/2010,20.99,28.19210937
4/19/2010,19.75,27.30878726
4/20/2010,18.8,27.24281579
4/21/2010,17.99,27.31265964
4/22/2010,17.23,27.36895726
4/23/2010,16.55,27.24285778
4/27/2010,15.95,27.21750148
4/28/2010,15.33,27.09530122
4/29/2010,14.89,27.05010974
4/30/2010,14.54,27.0440716
5/3/2010,14.28,27.02224486
5/4/2010,14.04,26.99549094
5/5/2010,13.78,26.96664754
5/6/2010,13.58,27.04073696
5/7/2010,13.37,26.99527203
5/10/2010,13.2,26.84856664
5/11/2010,13.05,26.89546042
5/12/2010,12.9,26.78404608
5/13/2010,12.77,26.6600978
5/14/2010,12.64,26.7501178
5/17/2010,12.53,26.86876225
5/18/2010,12.44,26.84888771
5/19/2010,12.36,26.91363423
5/20/2010,12.28,26.7622013
5/21/2010,12.27,25.77790196
5/24/2010,12.25,25.47323103
5/25/2010,12.24,25.06741596
5/26/2010,12.23,24.65494716
5/27/2010,12.23,24.09420059
5/28/2010,12.21,23.87001685
6/1/2010,12.18,23.94774825
6/2/2010,12.12,24.44183046
6/4/2010,12.09,27.46155008
6/7/2010,12.05,28.53735462
6/8/2010,11.97,28.85389037
6/10/2010,11.89,28.97158722
6/11/2010,11.81,29.16673276
6/14/2010,11.72,29.13283492
6/15/2010,11.65,29.02594762
6/16/2010,11.58,29.14846251
6/17/2010,11.52,29.57757105